COSMOS 2251 DEB, 35703

Orbit data source: Space-Track

COSMOS 2251 DEB, 35703 is space debris in LEO originally from a launch on Wed, 16 Jun 1993 UTC launched from the Plesetsk Missile And Space Complex (PKMTR). The debris from Iridium 33, an American commercial communications satellite, has been tracked extensively since its accidental collision with the defunct Russian satellite Cosmos 2251 in 2009. This event, occurring at high speed in low Earth orbit (LEO), generated thousands of pieces of space debris, significantly increasing the risk of further collisions. The Iridium 33 debris cloud has impacted space traffic management and orbital debris mitigation strategies, making it a subject of ongoing study in space situational awareness.

Loading next visibility...
Identifier
35703, 1993-036APY
Orbit
LEO
Country
Flag of CISCIS
Related business
Manufacturer
Unknown
Mission
Spacecraft
Bus & Motor
Unknown
Mass
Unknown
Launch date (UTC)
1993-06-16 (33 years ago)
Launch vehicle
Unknown
Launch site
Plesetsk Missile And Space Complex (PKMTR)
Object type
Payload
Rocket body
Debris
Shape & HBR
Unknown shape, 0.1 m
Radar Cross Section
Small (<0.1 m²)

Expand to show TLE details & history
Last TLE update: 1 day ago

TLE from 1 day ago
0 COSMOS 2251 DEB
1 35703U 93036APY 26262.20160108  .00003113  00000-0  28358-3 0  9992
2 35703  74.0397 199.4187 0063007 196.8927 163.0161 14.94115158708009
Epoch: 2026-09-19T04:50Z
TLE epoch observation values (Epoch: 2026-09-19T04:50:18.333Z)
Latitude
0.00001°
Longitude
128.72878°
Altitude
629.793 km
Speed
7.521 km/s
True Right ascension
13h 17m 40s
True Declination
0° 00' 00"
Sunlit
Object was in daylight at epoch
Visualization orbit readout
Latitude
Unknown
Longitude
Unknown
Altitude
Unknown
Speed
Unknown
Apparent Right ascension
Unknown
Apparent Declination
Unknown
Sunlit
N/A
Visualization observer readout
Local Sidereal Time
23:36:21
Azimuth
Unknown
Elevation
Unknown
Doppler factor
Unknown
Orbital elements
Apogee altitude
626.538 km
Perigee altitude
538.822 km
Semi-major axis
6,960.817 km
Eccentricity
0.0063
Inclination
74.0397°
RAAN
199.4187°
Arg. of periapsis
196.8927°
True anomaly
163.22542°
Mean anomaly
163.0161°
Eccentric anomaly
163.12092°
Mean motion
3.73726 °/min
Orbital period
96.33 mins
BSTAR
0.00028358

Documentation

Showing up to 5 results
|